This is the latest recevied weather packets stored in our database for station/object SV5BYP-10. If no packets are shown the sender has not sent any weather packets the latest 10 day(s).
| Time | Temp. | Humidity | Pressure | Rain* | Wind** | Luminosity | Snow |
|---|---|---|---|---|---|---|---|
| 1777934522 | 18.33° C | 47% | 1015.6 hPa | - | - | - | - |
| 1777933922 | 18.89° C | 47% | 1015.6 hPa | - | - | - | - |
| 1777933321 | 18.33° C | 47% | 1015.8 hPa | - | - | - | - |
| 1777932721 | 18.33° C | 46% | 1015.8 hPa | - | - | - | - |
| 1777932121 | 18.89° C | 46% | 1015.9 hPa | - | - | - | - |
| 1777931521 | 18.89° C | 46% | 1015.9 hPa | - | - | - | - |
| 1777930921 | 18.89° C | 46% | 1016 hPa | - | - | - | - |
| 1777930321 | 18.89° C | 46% | 1016 hPa | - | - | - | - |
| 1777929720 | 18.89° C | 46% | 1016 hPa | - | - | - | - |
| 1777929120 | 18.89° C | 46% | 1016.1 hPa | - | - | - | - |
| 1777928520 | 18.89° C | 45% | 1016 hPa | - | - | - | - |
| 1777927920 | 19.44° C | 45% | 1016 hPa | - | - | - | - |
| 1777927320 | 19.44° C | 45% | 1015.9 hPa | - | - | - | - |
| 1777926720 | 19.44° C | 45% | 1015.8 hPa | - | - | - | - |
| 1777926119 | 19.44° C | 45% | 1015.9 hPa | - | - | - | - |
| 1777925519 | 20° C | 44% | 1015.9 hPa | - | - | - | - |
| 1777924919 | 20° C | 44% | 1015.9 hPa | - | - | - | - |
| 1777924319 | 21.67° C | 48% | 1015.9 hPa | - | - | - | - |
| 1777924115 | 19.44° C | 46% | 1015.9 hPa | - | - | - | - |
| 1777923515 | 18.89° C | 46% | 1016 hPa | - | - | - | - |
| 1777922915 | 18.89° C | 46% | 1015.9 hPa | - | - | - | - |
| 1777922315 | 19.44° C | 45% | 1016 hPa | - | - | - | - |
| 1777921715 | 18.89° C | 46% | 1015.8 hPa | - | - | - | - |
| 1777921114 | 18.89° C | 46% | 1015.8 hPa | - | - | - | - |
| 1777920514 | 18.89° C | 47% | 1015.7 hPa | - | - | - | - |
* Rain since midnight (hover to see other rain measurements)
** Current wind speed in m/s (hover to see current wind gust speed)